FW9451 Weather Reports


Display with metric or nautical units.
time (UTC)temp
F
wind
direction
speed
MPH
gust
MPH
rain 1hr
in
rain 24hr
in
rain mn
in
humidity
%
barometer
mb
20260831193129 76 0 4.0 9.0 0.00 0.00 0.00 37 1019.5
20260831191555 76 187 2.0 9.0 0.00 0.00 0.00 37 1019.8
20260831190057 76 217 5.0 11.0 0.00 0.00 0.00 37 1019.6
20260831184605 78 29 1.0 6.0 0.00 0.00 0.00 36 1019.9
20260831183103 76 216 3.0 8.0 0.00 0.00 0.00 38 1019.9
20260831181609 76 355 1.0 10.0 0.00 0.00 0.00 38 1020.2
20260831174551 75 21 1.0 7.0 0.00 0.00 0.00 42 1020.5
20260831173100 74 352 4.0 10.0 0.00 0.00 0.00 40 1020.7
20260831171556 74 261 2.0 11.0 0.00 0.00 0.00 43 1020.7
20260831170054 73 244 2.0 9.0 0.00 0.00 0.00 43 1020.8
20260831164610 72 332 6.0 11.0 0.00 0.00 0.00 42 1021.0
20260831163103 72 306 3.0 12.0 0.00 0.00 0.00 44 1021.3
20260831161607 71 27 2.0 11.0 0.00 0.00 0.00 46 1021.3
20260831160110 69 46 7.0 14.0 0.00 0.00 0.00 46 1021.3
20260831154629 69 45 5.0 11.0 0.00 0.00 0.00 46 1021.5
20260831153058 69 17 3.0 9.0 0.00 0.00 0.00 46 1021.7
20260831151558 68 9 3.0 15.0 0.00 0.00 0.00 49 1021.8
20260831144603 66 17 3.0 11.0 0.00 0.00 0.00 51 1022.0
20260831143055 66 352 3.0 10.0 0.00 0.00 0.00 56 1022.0
20260831141607 66 336 3.0 10.0 0.00 0.00 0.00 55 1022.0
20260831140055 66 305 2.0 6.0 0.00 0.00 0.00 61 1022.0
20260831134608 64 344 1.0 6.0 0.00 0.00 0.00 62 1022.0
20260831133058 64 0 2.0 8.0 0.00 0.00 0.00 65 1021.9
20260831131602 63 289 2.0 9.0 0.00 0.00 0.00 67 1021.7
20260831130109 62 9 1.0 8.0 0.00 0.00 0.00 70 1021.6
20260831124600 61 260 2.0 9.0 0.00 0.00 0.00 71 1021.7
20260831123059 60 342 2.0 8.0 0.00 0.00 0.00 73 1021.5
20260831121609 59 16 2.0 8.0 0.00 0.00 0.00 75 1021.5
20260831120100 58 0 2.0 5.0 0.00 0.00 0.00 79 1021.6
20260831114607 56 0 0.0 4.0 0.00 0.00 0.00 82 1021.5
20260831113105 56 13 1.0 5.0 0.00 0.00 0.00 82 1021.4
20260831111605 55 5 2.0 6.0 0.00 0.00 0.00 83 1021.4
20260831110100 55 9 3.0 9.0 0.00 0.00 0.00 84 1021.0
20260831104601 55 43 3.0 8.0 0.00 0.00 0.00 84 1021.1
20260831103056 55 34 2.0 8.0 0.00 0.00 0.00 84 1021.0
20260831101558 55 320 2.0 8.0 0.00 0.00 0.00 85 1020.9
20260831100114 55 5 1.0 4.0 0.00 0.00 0.00 86 1020.8
20260831094558 55 300 0.0 3.0 0.00 0.00 0.00 86 1020.7
20260831093102 55 0 0.0 3.0 0.00 0.00 0.00 85 1020.6
20260831091551 55 278 1.0 6.0 0.00 0.00 0.00 85 1020.5
20260831090118 55 288 0.0 3.0 0.00 0.00 0.00 85 1020.3
20260831084601 56 0 1.0 4.0 0.00 0.00 0.00 84 1020.2
20260831083111 56 310 2.0 8.0 0.00 0.00 0.00 83 1020.0
20260831081558 56 14 1.0 5.0 0.00 0.00 0.00 83 1020.0
20260831080128 56 332 2.0 5.0 0.00 0.00 0.00 83 1019.8
20260831074559 56 302 1.0 5.0 0.00 0.00 0.00 84 1019.8
20260831073057 57 0 2.0 8.0 0.00 0.00 0.00 84 1019.6
20260831071601 57 45 3.0 9.0 0.00 0.00 0.00 84 1019.4
20260831070100 57 23 2.0 10.0 0.00 0.00 0.00 83 1019.6
20260831064554 57 23 3.0 10.0 0.00 0.00 0.00 84 1019.6
20260831063112 57 350 3.0 9.0 0.00 0.00 0.00 84 1019.5
20260831061557 57 295 2.0 7.0 0.00 0.00 0.00 84 1019.6
20260831054556 58 343 2.0 6.0 0.00 0.00 0.00 83 1019.1
20260831053131 58 0 1.0 5.0 0.00 0.00 0.00 84 1018.9
20260831051559 58 313 2.0 5.0 0.00 0.00 0.00 85 1018.7
20260831050059 58 237 1.0 4.0 0.00 0.00 0.00 86 1018.6
20260831044637 58 0 1.0 7.0 0.00 0.00 0.00 86 1018.4
20260831043100 58 316 2.0 7.0 0.00 0.00 0.00 86 1018.4
20260831041603 59 336 1.0 5.0 0.00 0.00 0.00 87 1018.4
20260831040101 59 304 1.0 3.0 0.00 0.00 0.00 87 1018.4
20260831034601 60 0 0.0 4.0 0.00 0.00 0.00 87 1018.4
20260831033109 60 0 2.0 5.0 0.00 0.00 0.00 86 1018.3
20260831031555 60 261 1.0 4.0 0.00 0.00 0.00 85 1018.2
20260831024558 60 341 0.0 4.0 0.00 0.00 0.00 84 1018.5
20260831023102 61 355 2.0 9.0 0.00 0.00 0.00 82 1018.6
20260831021557 62 13 5.0 13.0 0.00 0.00 0.00 79 1018.8
20260831014558 67 138 9.0 23.0 0.00 0.00 0.00 65 1018.2
20260831013056 68 15 3.0 8.0 0.00 0.00 0.00 70 1017.6
20260831011556 68 0 1.0 6.0 0.00 0.00 0.00 71 1017.0
20260831010110 68 298 1.0 4.0 0.00 0.00 0.00 72 1016.9
20260831004557 68 251 1.0 6.0 0.00 0.00 0.00 71 1016.7
20260831003055 69 215 2.0 6.0 0.00 0.00 0.00 71 1016.6
20260831001601 69 220 2.0 9.0 0.00 0.00 0.00 71 1016.6
20260831000105 68 254 1.0 6.0 0.00 0.00 0.00 71 1016.4
20260830234615 68 214 2.0 8.0 0.00 0.00 0.00 72 1016.3
20260830233056 68 229 4.0 9.0 0.00 0.00 0.00 72 1016.3
20260830231558 70 250 6.0 14.0 0.00 0.00 0.00 68 1016.3
20260830224600 70 238 5.0 11.0 0.00 0.00 0.00 68 1016.2
20260830223057 71 235 5.0 12.0 0.00 0.00 0.00 68 1016.4
20260830221558 71 203 6.0 10.0 0.00 0.00 0.00 69 1016.2
20260830214607 71 228 4.0 9.0 0.00 0.00 0.00 70 1016.3
20260830213113 70 255 3.0 8.0 0.00 0.00 0.00 71 1016.3
20260830211607 70 234 5.0 9.0 0.00 0.00 0.00 71 1016.4
20260830210103 70 211 5.0 10.0 0.00 0.00 0.00 71 1016.4
20260830204555 70 219 6.0 10.0 0.00 0.00 0.00 72 1016.4
20260830203104 69 259 5.0 10.0 0.00 0.00 0.00 73 1016.5
20260830201606 69 245 7.0 12.0 0.00 0.00 0.00 73 1016.6
20260830200100 69 205 7.0 14.0 0.00 0.00 0.00 74 1016.6
20260830194558 69 225 7.0 14.0 0.00 0.00 0.00 73 1017.0